Flag for Sweden Weather past 2 weeks in Helsingborg, Sweden

Now
57 °F

Cool.


Feels Like: 55 °F
Forecast: 58 / 68 °F
Wind: 9 mph from Southwest

Location: Ljungbyhed

Current Time: Aug 29, 2015 at 12:59:42 AM

Latest Report: Aug 29, 2015 at 12:20 AM


Visibility: N/A

Pressure: 30.04 "Hg

Humidity: 88%

Dew point: 54 °F

Location of HelsingborgLocation

Historic Weather in Helsingborg — Graph

°F

Helsingborg temperature yesterday

Maximum temperature yesterday: 68 °F (at 2:50 PM)
Minimum temperature yesterday: 54 °F (at 10:20 PM)
Average temperature yesterday: 60 °F

Past Weeks' High & Low Weather Summary

 TemperatureHumidityPressure
High77 °F (Aug 15, 12:20 PM)100% (Aug 14, 4:50 AM)30.39 "Hg (Aug 14, 4:50 AM)
Low45 °F (Aug 23, 5:50 AM)33% (Aug 22, 4:50 PM)29.71 "Hg (Aug 25, 2:20 AM)
Average64 °F76%30.03 "Hg
* Reported Aug 13 11:20 PM — Aug 28 11:50 PM, Helsingborg, Weather by CustomWeather, © 2015

Note: Actual official high and low records may vary slightly from our data, if they occured in-between our weather recording intervals... More about our weather records

Advertising

Helsingborg weather history for previous 24 hours

 ConditionsComfort  
Time TempWeatherWind HumidityBarometerVisibility
11:50 PM
Fri, Aug 28
57 °FCool.8 mph88%30.04 "HgN/A
11:20 PM55 °FCool.7 mph88%30.04 "HgN/A
10:50 PM55 °FCool.6 mph82%30.01 "HgN/A
10:20 PM54 °FPassing clouds.3 mph94%30.01 "HgN/A
9:50 PM55 °FPassing clouds.7 mph82%30.01 "HgN/A
9:20 PM55 °FLight rain. Partly cloudy.7 mph88%30.01 "HgN/A
8:50 PM55 °FPartly sunny.6 mph88%30.01 "HgN/A
8:20 PM55 °FBroken clouds.9 mph88%30.01 "HgN/A
7:50 PM59 °FPassing clouds.9 mph77%30.01 "HgN/A
7:20 PM61 °FCool.8 mph72%29.98 "HgN/A
6:50 PM63 °FPassing clouds.10 mph73%29.98 "HgN/A
6:20 PM63 °FPartly sunny.14 mph73%29.98 "HgN/A
5:50 PM63 °FScattered clouds.14 mph68%29.98 "HgN/A
5:20 PM64 °FBroken clouds.12 mph64%29.98 "HgN/A
4:50 PM66 °FPartly sunny.8 mph60%29.95 "HgN/A
4:20 PM66 °FPassing clouds.8 mph60%29.95 "HgN/A
3:50 PM66 °FBroken clouds.16 mph56%29.95 "HgN/A
3:20 PM68 °FScattered clouds.15 mph53%29.95 "HgN/A
2:50 PM68 °FScattered clouds.17 mph53%29.95 "HgN/A
2:20 PM66 °FScattered clouds.16 mph56%29.95 "HgN/A
1:50 PM64 °FBroken clouds.13 mph64%29.92 "HgN/A
1:20 PM64 °FBroken clouds.15 mph64%29.92 "HgN/A
12:50 PM63 °FBroken clouds.14 mph73%29.92 "HgN/A
12:20 PM64 °FBroken clouds.15 mph68%29.92 "HgN/A
11:50 AM64 °FScattered clouds.17 mph64%29.89 "HgN/A
11:20 AM64 °FScattered clouds.14 mph64%29.89 "HgN/A
10:50 AM64 °FScattered clouds.14 mph68%29.89 "HgN/A
10:20 AM64 °FScattered clouds.13 mph68%29.86 "HgN/A
9:50 AM63 °FScattered clouds.13 mph77%29.86 "HgN/A
9:20 AM61 °FScattered clouds.12 mph88%29.86 "HgN/A
8:50 AM61 °FScattered clouds.9 mph88%29.83 "HgN/A
8:20 AM61 °FScattered clouds.8 mph88%29.83 "HgN/A
7:50 AM59 °FBroken clouds.8 mph94%29.83 "HgN/A
7:20 AM59 °FBroken clouds.10 mph94%29.80 "HgN/A
6:50 AM57 °FPassing clouds.9 mph100%29.80 "HgN/A
5:50 AM57 °FPassing clouds.6 mph94%29.80 "HgN/A
5:20 AM57 °FPassing clouds.7 mph94%29.77 "HgN/A
4:50 AM57 °FPartly cloudy.8 mph100%29.77 "Hg3 mi
4:20 AM59 °FMostly cloudy.6 mph88%29.77 "HgN/A
3:50 AM57 °FOvercast.7 mph94%29.77 "HgN/A
3:20 AM57 °FPassing clouds.7 mph94%29.77 "HgN/A
2:50 AM57 °FPassing clouds.9 mph94%29.77 "HgN/A
2:20 AM57 °FPassing clouds.8 mph94%29.74 "HgN/A
1:50 AM57 °FPassing clouds.8 mph94%29.77 "HgN/A
1:20 AM59 °FOvercast.9 mph88%29.77 "HgN/A
12:50 AM59 °FOvercast.5 mph88%29.77 "HgN/A
12:20 AM57 °FPassing clouds.5 mph94%29.77 "HgN/A
Weather by CustomWeather, © 2015

See weather overviewHow to use our weather pages